CW4778 Weather Reports


Display with metric or nautical units.
time (UTC)temp
F
wind
direction
speed
MPH
gust
MPH
rain 1hr
in
rain 24hr
in
rain mn
in
humidity
%
barometer
mb
20260505013805 66 102 10.0 16.0 0.00 0.00 0.00 83 1032.2
20260505012805 66 85 7.0 16.0 0.00 0.00 0.00 83 1032.2
20260505012305 66 88 7.0 13.0 0.00 0.00 0.00 83 1032.2
20260505010804 66 95 9.0 13.0 0.00 0.00 0.00 83 1032.5
20260505010305 66 107 10.0 14.0 0.00 0.00 0.00 82 1032.5
20260505005805 66 106 10.0 14.0 0.00 0.00 0.00 82 1032.7
20260505004805 66 102 9.0 12.0 0.00 0.00 0.00 83 1032.8
20260505003804 65 99 7.0 15.0 0.00 0.00 0.00 84 1032.9
20260505003305 65 98 10.0 13.0 0.00 0.00 0.00 85 1033.0
20260505002804 65 94 9.0 14.0 0.00 0.00 0.00 84 1033.1
20260505001805 65 98 10.0 14.0 0.00 0.00 0.00 84 1033.2
20260505000805 65 81 7.0 12.0 0.00 0.00 0.00 83 1033.3
20260505000305 66 82 7.0 10.0 0.00 0.00 0.00 84 1033.3
20260504234805 66 110 9.0 13.0 0.00 0.00 0.00 84 1033.5
20260504232805 67 106 8.0 16.0 0.00 0.00 0.00 82 1033.7
20260504232305 67 111 10.0 15.0 0.00 0.00 0.00 82 1033.7
20260504231804 66 93 7.0 12.0 0.00 0.00 0.00 83 1033.8
20260504231304 65 105 10.0 14.0 0.00 0.00 0.00 83 1033.8
20260504230305 64 84 5.0 10.0 0.00 0.00 0.00 85 1034.0
20260504225805 65 76 7.0 13.0 0.00 0.00 0.00 84 1034.1
20260504225305 64 71 6.0 9.0 0.00 0.00 0.00 85 1034.1
20260504224805 64 92 6.0 9.0 0.00 0.00 0.00 85 1034.2
20260504224305 64 99 9.0 10.0 0.00 0.00 0.00 86 1034.3
20260504223805 63 98 4.0 9.0 0.00 0.00 0.00 88 1034.3
20260504223305 63 100 6.0 8.0 0.00 0.00 0.00 86 1034.3
20260504222805 63 109 10.0 13.0 0.00 0.00 0.00 86 1034.3
20260504222305 63 105 9.0 12.0 0.00 0.00 0.00 86 1034.3
20260504221805 62 109 7.0 14.0 0.00 0.00 0.00 86 1034.2
20260504220805 62 82 5.0 8.0 0.00 0.00 0.00 86 1034.3
20260504220305 62 92 6.0 13.0 0.00 0.00 0.00 86 1034.3
20260504215305 62 91 5.0 12.0 0.00 0.00 0.00 87 1034.3
20260504213304 62 96 5.0 7.0 0.00 0.00 0.00 87 1034.3
20260504212804 61 102 3.0 6.0 0.00 0.00 0.00 86 1034.3
20260504211805 61 104 2.0 6.0 0.00 0.00 0.00 87 1034.3
20260504211304 61 120 3.0 6.0 0.00 0.00 0.00 87 1034.3
20260504210805 61 165 2.0 5.0 0.00 0.00 0.00 85 1034.3
20260504210304 61 181 3.0 6.0 0.00 0.00 0.00 85 1034.3
20260504204305 59 154 5.0 8.0 0.00 0.00 0.00 88 1034.3
20260504203804 58 148 6.0 8.0 0.00 0.00 0.00 88 1034.4
20260504202305 57 152 5.0 9.0 0.00 0.00 0.00 89 1034.4
20260504201805 57 157 4.0 7.0 0.00 0.00 0.00 90 1034.3
20260504201305 57 168 4.0 6.0 0.00 0.00 0.00 89 1034.3
20260504195304 57 176 5.0 8.0 0.00 0.00 0.00 89 1034.2
20260504194805 57 176 5.0 8.0 0.00 0.00 0.00 89 1034.1
20260504191305 57 200 5.0 8.0 0.00 0.00 0.00 89 1034.2
20260504190805 57 201 4.0 7.0 0.00 0.00 0.00 89 1034.1
20260504190304 56 203 2.0 6.0 0.00 0.00 0.00 89 1034.1
20260504185305 56 203 5.0 7.0 0.00 0.00 0.00 89 1034.0
20260504184804 56 190 6.0 7.0 0.00 0.00 0.00 89 1034.0
20260504182304 56 193 3.0 6.0 0.00 0.00 0.00 89 1033.9
20260504181305 56 196 3.0 6.0 0.00 0.00 0.00 89 1034.0
20260504180804 56 197 5.0 6.0 0.00 0.00 0.00 89 1033.9
20260504180304 56 198 5.0 7.0 0.00 0.00 0.00 89 1033.9
20260504175804 56 200 6.0 7.0 0.00 0.00 0.00 89 1033.9
20260504174804 56 189 5.0 6.0 0.00 0.00 0.00 89 1033.9
20260504174305 56 189 5.0 6.0 0.00 0.00 0.00 89 1033.9
20260504173804 56 175 3.0 6.0 0.00 0.00 0.00 89 1033.9
20260504170305 55 168 3.0 5.0 0.00 0.00 0.00 89 1033.8
20260504160304 55 174 3.0 7.0 0.00 0.00 0.00 88 1033.7
20260504141304 57 131 3.0 7.0 0.00 0.00 0.00 84 1034.7
20260504140805 57 115 2.0 3.0 0.00 0.00 0.00 84 1034.7
20260504100305 59 116 6.0 12.0 0.00 0.00 0.00 80 1035.3
20260504081804 57 119 6.0 8.0 0.00 0.00 0.00 82 1035.2
20260504081304 57 125 5.0 9.0 0.00 0.00 0.00 82 1035.2
20260504080305 57 121 4.0 6.0 0.00 0.00 0.00 82 1035.2
20260504045304 61 85 3.0 7.0 0.00 0.00 0.00 75 1033.9
20260504044804 61 89 5.0 7.0 0.00 0.00 0.00 74 1033.9
20260504044305 61 98 8.0 9.0 0.00 0.00 0.00 74 1033.9
20260504042804 61 110 7.0 10.0 0.00 0.00 0.00 73 1033.9
20260504040305 62 107 8.0 12.0 0.00 0.00 0.00 73 1034.2
20260504035804 62 88 6.0 12.0 0.00 0.00 0.00 73 1034.3
20260504034305 63 78 5.0 9.0 0.00 0.00 0.00 74 1034.2
20260504033804 63 81 6.0 10.0 0.00 0.00 0.00 74 1034.2
20260504033305 63 96 7.0 10.0 0.00 0.00 0.00 73 1034.2
20260504031804 63 62 7.0 10.0 0.00 0.00 0.00 72 1034.2
20260504030304 63 65 7.0 10.0 0.00 0.00 0.00 72 1034.2
20260504025305 63 68 3.0 7.0 0.00 0.00 0.00 73 1034.2
20260504022805 64 91 6.0 8.0 0.00 0.00 0.00 71 1034.2
20260504022305 64 93 5.0 8.0 0.00 0.00 0.00 72 1034.2
20260504021305 65 91 5.0 9.0 0.00 0.00 0.00 70 1034.3
20260504020805 65 86 6.0 10.0 0.00 0.00 0.00 71 1034.3
20260504015805 63 68 4.0 8.0 0.00 0.00 0.00 70 1034.3
20260504015305 63 70 5.0 9.0 0.00 0.00 0.00 71 1034.4